User: anonymous   Login
Location: Unspecified
(0.0000°N, 0.0000°E)
Time: 09:32:24
(UTC+00:00)
Language:

LQSAT - Orbit

View from above orbital plane
View from above orbital plane
View from above satellite
View from above satellite

Ground track
Ground track

The orbit data is extracted from the following two-line orbital elements,

1 40958U 15057A   19346.17058356  .00000018  00000-0  10386-4 0  9993
2 40958  97.8797  50.4115 0018952  38.5912 321.6647 14.73099836224786
Epoch (UTC): 12 December 2019 04:05:38
Eccentricity: 0.0018952
inclination: 97.8797°
perigee height: 638 km
apogee height: 664 km
right ascension of ascending node: 50.4115°
argument of perigee: 38.5912°
revolutions per day: 14.73099836
mean anomaly at epoch: 321.6647°
orbit number at epoch: 22478

The dashed part of the orbit path shows where the satellite is in the earth's shadow,  

DLR